GW4806 Weather Reports


time (UTC)temp
F
wind
direction
speed
knots
gust
knots
rain 1hr
in
rain 24hr
in
rain mn
in
humidity
%
barometer
mb
20260504050311 50 107 1.7 1.7 0.00 0.00 0.00 62 1002.8
20260504045808 50 131 1.7 1.7 0.00 0.00 0.00 61 1002.7
20260504045304 50 90 0.9 1.7 0.00 0.00 0.00 61 1002.7
20260504044800 50 165 0.0 1.7 0.00 0.00 0.00 61 1002.9
20260504044258 51 165 0.0 1.7 0.00 0.00 0.00 61 1002.8
20260504043755 51 172 0.0 0.9 0.00 0.00 0.00 59 1003.1
20260504043251 51 175 0.0 0.0 0.00 0.00 0.00 59 1003.2
20260504042749 51 105 0.0 0.9 0.00 0.00 0.00 61 1003.1
20260504042245 52 74 0.0 1.7 0.00 0.00 0.00 60 1003.2
20260504041742 52 165 0.0 1.7 0.00 0.00 0.00 57 1003.3
20260504041238 52 151 0.0 1.7 0.00 0.00 0.00 56 1003.3
20260504040734 52 139 0.0 1.7 0.00 0.00 0.00 56 1003.4
20260504040232 53 180 0.9 0.9 0.00 0.00 0.00 56 1003.7
20260504035727 53 157 0.0 0.9 0.00 0.00 0.00 55 1003.5
20260504035225 53 180 0.0 1.7 0.00 0.00 0.00 54 1003.7
20260504034722 52 123 0.0 0.9 0.00 0.00 0.00 55 1003.6
20260504034219 53 165 0.0 0.9 0.00 0.00 0.00 54 1003.8
20260504033717 53 106 0.0 0.0 0.00 0.00 0.00 56 1003.8
20260504033214 53 90 0.0 0.9 0.00 0.00 0.00 56 1004.1
20260504032711 53 126 0.0 1.7 0.00 0.00 0.00 56 1004.1
20260504032208 54 166 0.0 0.9 0.00 0.00 0.00 51 1004.1
20260504031705 54 168 0.0 0.9 0.00 0.00 0.00 52 1004.1
20260504031202 54 157 0.0 1.7 0.00 0.00 0.00 55 1004.3
20260504030658 54 157 0.0 0.9 0.00 0.00 0.00 55 1004.4
20260504030155 54 106 0.0 0.9 0.00 0.00 0.00 54 1004.3
20260504025652 54 106 0.0 0.0 0.00 0.00 0.00 54 1004.2
20260504025148 55 117 0.9 0.9 0.00 0.00 0.00 55 1004.4
20260504024646 55 75 0.0 0.0 0.00 0.00 0.00 55 1004.2
20260504024142 55 120 0.0 0.9 0.00 0.00 0.00 54 1004.2
20260504023639 55 81 0.0 0.0 0.00 0.00 0.00 54 1004.2
20260504023135 55 90 0.9 0.9 0.00 0.00 0.00 53 1004.1
20260504022632 56 75 0.0 1.7 0.00 0.00 0.00 53 1004.2
20260504022127 56 90 0.0 0.9 0.00 0.00 0.00 53 1004.4
20260504021626 57 75 0.0 0.9 0.00 0.00 0.00 50 1004.1
20260504021122 57 90 0.0 0.0 0.00 0.00 0.00 48 1004.2
20260504020619 58 90 0.0 0.0 0.00 0.00 0.00 47 1004.1
20260504020115 59 103 0.0 0.9 0.00 0.00 0.00 47 1004.4
20260504015612 59 74 0.9 0.9 0.00 0.00 0.00 44 1003.9
20260504015108 60 90 0.0 0.9 0.00 0.00 0.00 42 1004.1
20260504014604 60 90 0.0 0.9 0.00 0.00 0.00 43 1004.0
20260504014101 61 81 0.0 0.9 0.00 0.00 0.00 41 1004.1
20260504013559 62 90 0.0 1.7 0.00 0.00 0.00 38 1004.1
20260504013055 63 23 0.0 0.9 0.00 0.00 0.00 37 1004.1
20260504012553 63 81 0.0 0.0 0.00 0.00 0.00 36 1003.9
20260504012051 64 120 0.0 1.7 0.00 0.00 0.00 35 1004.1
20260504011547 65 345 0.0 0.9 0.00 0.00 0.00 35 1004.2
20260504011043 65 6 0.0 1.7 0.00 0.00 0.00 34 1004.3
20260504010539 66 279 0.0 1.7 0.00 0.00 0.00 34 1004.1
20260504010036 66 0 0.0 1.7 0.00 0.00 0.00 33 1004.1
20260504005532 66 8 0.0 1.7 0.00 0.00 0.00 33 1004.1
20260504005030 67 0 0.9 3.5 0.00 0.00 0.00 31 1004.1
20260504004528 67 251 0.0 4.3 0.00 0.00 0.00 31 1004.1
20260504004024 68 286 0.0 1.7 0.00 0.00 0.00 31 1004.2
20260504003520 68 276 2.6 3.5 0.00 0.00 0.00 31 1004.2
20260504003017 68 355 1.7 6.1 0.00 0.00 0.00 31 1004.4
20260504002514 69 297 1.7 5.2 0.00 0.00 0.00 32 1004.2
20260504002012 69 341 4.3 4.3 0.00 0.00 0.00 30 1004.1
20260504001509 69 11 0.0 6.1 0.00 0.00 0.00 29 1004.2
20260504001005 69 342 2.6 6.1 0.00 0.00 0.00 29 1004.1
20260504000503 69 305 2.6 6.1 0.00 0.00 0.00 29 1004.1
20260504000000 69 326 4.3 7.0 0.00 0.00 0.00 29 1004.3
20260503235458 69 339 1.7 4.3 0.00 0.00 0.00 29 1004.2
20260503234955 70 285 2.6 4.3 0.00 0.00 0.00 29 1004.3
20260503234452 70 133 2.6 4.3 0.00 0.00 0.00 28 1004.1
20260503233950 70 308 3.5 7.0 0.00 0.00 0.00 30 1004.2
20260503233446 70 346 3.5 6.1 0.00 0.00 0.00 29 1004.3
20260503232943 70 345 1.7 4.3 0.00 0.00 0.00 29 1004.2
20260503232440 70 339 4.3 7.8 0.00 0.00 0.00 29 1004.1
20260503231938 70 345 5.2 12.2 0.00 0.00 0.00 27 1004.3
20260503231435 70 270 5.2 5.2 0.00 0.00 0.00 31 1004.1
20260503230931 70 356 3.5 7.8 0.00 0.00 0.00 29 1004.3
20260503230428 70 331 0.0 9.6 0.00 0.00 0.00 29 1004.1
20260503225926 71 320 2.6 4.3 0.00 0.00 0.00 28 1004.2
20260503225422 71 336 3.5 6.1 0.00 0.00 0.00 29 1004.2
20260503224918 71 45 4.3 4.3 0.00 0.00 0.00 28 1004.2
20260503224415 71 0 0.0 5.2 0.00 0.00 0.00 31 1004.2
20260503223913 71 321 3.5 6.1 0.00 0.00 0.00 27 1004.3
20260503223410 70 341 2.6 4.3 0.00 0.00 0.00 27 1004.1
20260503222911 70 297 2.6 10.4 0.00 0.00 0.00 28 1004.2
20260503222409 70 0 1.7 9.6 0.00 0.00 0.00 27 1004.2
20260503221907 70 262 2.6 7.8 0.00 0.00 0.00 27 1004.2
20260503221406 71 323 2.6 4.3 0.00 0.00 0.00 26 1004.4
20260503220901 70 290 2.6 7.0 0.00 0.00 0.00 28 1004.4
20260503220358 69 85 0.0 4.3 0.00 0.00 0.00 27 1004.3
20260503215855 72 33 4.3 10.4 0.00 0.00 0.00 26 1004.2
20260503215352 70 331 0.9 4.3 0.00 0.00 0.00 28 1004.2
20260503214849 69 324 1.7 5.2 0.00 0.00 0.00 26 1004.3
20260503214347 71 298 2.6 8.7 0.00 0.00 0.00 25 1004.3
20260503213844 68 235 0.0 8.7 0.00 0.00 0.00 31 1004.2
20260503213342 70 13 2.6 8.7 0.00 0.00 0.00 27 1004.4
20260503212838 70 329 6.1 7.8 0.00 0.00 0.00 25 1004.5
20260503212336 70 355 2.6 11.3 0.00 0.00 0.00 25 1004.4
20260503211833 70 339 4.3 7.0 0.00 0.00 0.00 26 1004.5
20260503211330 70 1 4.3 9.6 0.00 0.00 0.00 26 1004.6
20260503210825 69 344 2.6 7.0 0.00 0.00 0.00 28 1004.3
20260503210323 70 339 4.3 10.4 0.00 0.00 0.00 28 1004.6
20260503205818 70 169 2.6 7.0 0.00 0.00 0.00 29 1004.5
20260503205314 69 17 3.5 11.3 0.00 0.00 0.00 33 1004.7
20260503204811 69 359 6.1 12.2 0.00 0.00 0.00 30 1004.7
20260503204309 69 270 2.6 8.7 0.00 0.00 0.00 30 1004.7
20260503203806 69 312 3.5 6.1 0.00 0.00 0.00 31 1004.6
20260503203303 68 290 1.7 5.2 0.00 0.00 0.00 31 1004.8
20260503202800 70 341 0.0 7.0 0.00 0.00 0.00 32 1004.6
20260503202258 68 285 0.0 6.1 0.00 0.00 0.00 35 1004.6
20260503201755 69 345 0.9 9.6 0.00 0.00 0.00 31 1004.9
20260503201253 69 345 1.7 7.0 0.00 0.00 0.00 31 1004.7
20260503200750 69 320 2.6 8.7 0.00 0.00 0.00 31 1004.7
20260503200246 69 352 1.7 4.3 0.00 0.00 0.00 32 1004.8
20260503195743 69 220 0.0 7.0 0.00 0.00 0.00 32 1004.9
20260503195239 69 330 4.3 8.7 0.00 0.00 0.00 33 1004.9
20260503194738 69 354 2.6 12.2 0.00 0.00 0.00 31 1005.2
20260503194233 69 251 2.6 7.0 0.00 0.00 0.00 29 1004.9
20260503193729 68 344 3.5 5.2 0.00 0.00 0.00 32 1004.9
20260503193225 70 329 2.6 9.6 0.00 0.00 0.00 28 1005.1
20260503192721 69 41 1.7 7.0 0.00 0.00 0.00 31 1004.8
20260503192216 68 39 2.6 12.2 0.00 0.00 0.00 30 1005.2
20260503191714 68 276 2.6 8.7 0.00 0.00 0.00 30 1004.9
20260503191211 68 352 2.6 6.1 0.00 0.00 0.00 29 1004.9
20260503190707 69 344 1.7 9.6 0.00 0.00 0.00 30 1005.3
20260503190204 69 352 3.5 6.1 0.00 0.00 0.00 31 1005.1
20260503185701 68 12 2.6 5.2 0.00 0.00 0.00 30 1005.2
20260503185156 68 342 1.7 7.8 0.00 0.00 0.00 33 1005.3
20260503184651 68 323 7.0 10.4 0.00 0.00 0.00 34 1005.1
20260503184148 67 15 2.6 14.8 0.00 0.00 0.00 34 1005.1
20260503183644 68 312 7.0 12.2 0.00 0.00 0.00 32 1005.1
20260503183142 68 319 5.2 7.8 0.00 0.00 0.00 32 1005.3
20260503182640 67 3 1.7 11.3 0.00 0.00 0.00 33 1005.3
20260503182139 67 295 3.5 6.1 0.00 0.00 0.00 34 1005.1
20260503181635 68 270 1.7 9.6 0.00 0.00 0.00 35 1005.3
20260503181132 68 24 3.5 7.8 0.00 0.00 0.00 35 1005.2
20260503180628 69 46 4.3 12.2 0.00 0.00 0.00 36 1005.3
20260503180126 67 14 1.7 9.6 0.00 0.00 0.00 38 1005.3
20260503175623 66 339 7.0 13.9 0.00 0.00 0.00 36 1005.3
20260503175120 68 299 2.6 7.8 0.00 0.00 0.00 36 1005.3
20260503174617 66 0 0.9 6.1 0.00 0.00 0.00 39 1005.4
20260503174114 67 270 1.7 8.7 0.00 0.00 0.00 40 1005.6
20260503173609 67 61 9.6 9.6 0.00 0.00 0.00 38 1005.6
20260503173106 66 342 6.1 6.1 0.00 0.00 0.00 40 1005.6
20260503172603 66 343 2.6 8.7 0.00 0.00 0.00 39 1005.5
20260503172100 66 13 4.3 8.7 0.00 0.00 0.00 39 1005.6
20260503171556 67 270 2.6 9.6 0.00 0.00 0.00 43 1005.4
20260503171054 66 297 4.3 7.8 0.00 0.00 0.00 43 1005.6
20260503170550 65 308 5.2 7.0 0.00 0.00 0.00 42 1005.5
20260503150943 59 213 1.7 7.0 0.00 0.00 0.00 49 1004.8
20260503150439 60 252 2.6 5.2 0.00 0.00 0.00 50 1004.9
20260503131332 54 199 4.3 7.8 0.00 0.00 0.00 53 1005.2
20260503130829 53 183 3.5 7.8 0.00 0.00 0.00 53 1005.1
20260503130327 54 202 1.7 4.3 0.00 0.00 0.00 53 1005.1
20260503110721 51 131 1.7 7.0 0.00 0.00 0.00 55 1004.8
20260503110218 51 174 2.6 5.2 0.00 0.00 0.00 54 1004.9
20260503100144 53 138 2.6 5.2 0.00 0.00 0.00 51 1005.5
20260503081538 54 168 1.7 5.2 0.00 0.00 0.00 52 1007.7
20260503081036 54 190 2.6 7.0 0.00 0.00 0.00 52 1008.0
20260503080532 54 212 2.6 5.2 0.00 0.00 0.00 52 1008.0
20260503072506 56 208 2.6 9.6 0.00 0.00 0.00 46 1008.8
20260503072003 56 203 4.3 7.0 0.00 0.00 0.00 47 1008.7
20260503071500 55 177 4.3 6.1 0.00 0.00 0.00 51 1008.5
20260503070955 55 200 2.6 6.1 0.00 0.00 0.00 52 1008.6
20260503070453 55 190 2.6 6.1 0.00 0.00 0.00 51 1008.6